IK4NOW-13 Weather Reports


Display with metric or nautical units.
time (UTC)temp
F
wind
direction
speed
MPH
gust
MPH
rain 1hr
in
rain 24hr
in
rain mn
in
humidity
%
barometer
mb
20260507220531 60 0.0 0.0 0.00 0.00 0.00 62 1014.9
20260507212025 61 0.0 0.0 0.00 0.00 0.00 61 1014.6
20260507203520 62 0.0 0.0 0.00 0.00 0.00 59 1014.6
20260507195015 63 0.0 0.0 0.00 0.00 0.00 58 1014.9
20260507190510 64 0.0 0.0 0.00 0.00 0.00 57 1014.3
20260507182004 65 0.0 0.0 0.00 0.00 0.00 56 1014.2
20260507173459 68 0.0 0.0 0.00 0.00 0.00 54 1013.6
20260507164954 70 0.0 0.0 0.00 0.00 0.00 53 1013.7
20260507160449 71 0.0 0.0 0.00 0.00 0.00 52 1013.3
20260507151943 72 0.0 0.0 0.00 0.00 0.00 52 1013.3
20260507143438 72 0.0 0.0 0.00 0.00 0.00 52 1013.6
20260507134933 72 0.0 0.0 0.00 0.00 0.00 52 1013.8
20260507130428 72 0.0 0.0 0.00 0.00 0.00 53 1013.9
20260507121922 73 0.0 0.0 0.00 0.00 0.00 54 1013.8
20260507113417 74 0.0 0.0 0.00 0.00 0.00 52 1013.9
20260507104912 74 0.0 0.0 0.00 0.00 0.00 53 1014.2
20260507100407 73 0.0 0.0 0.00 0.00 0.00 54 1014.4
20260507091902 72 0.0 0.0 0.00 0.00 0.00 56 1014.5
20260507083356 72 0.0 0.0 0.00 0.00 0.00 56 1014.4
20260507074851 71 0.0 0.0 0.00 0.00 0.00 59 1014.2
20260507070346 72 0.0 0.0 0.00 0.00 0.00 60 1014.2
20260507061840 74 0.0 0.0 0.00 0.00 0.00 62 1013.9
20260507053335 60 0.0 0.0 0.00 0.00 0.00 64 1013.7
20260507044830 57 0.0 0.0 0.00 0.00 0.00 62 1013.4
20260507040326 57 0.0 0.0 0.00 0.00 0.00 63 1012.8
20260507031820 58 0.0 0.0 0.00 0.00 0.00 62 1012.5
20260507023314 58 0.0 0.0 0.00 0.00 0.00 62 1012.5
20260507014809 58 0.0 0.0 0.00 0.00 0.00 62 1012.6
20260507010304 59 0.0 0.0 0.00 0.00 0.00 63 1012.4
20260507001759 60 0.0 0.0 0.00 0.00 0.00 63 1012.5
20260506233254 60 0.0 0.0 0.00 0.00 0.00 63 1012.8
20260506224749 60 0.0 0.0 0.00 0.00 0.00 63 1012.7